Location: Gleizolles
(44.4833°N, 6.7667°E)
Time: 16:16:07
(UTC+00:00)

Altair - Pass Details

Date: 26 June 2024
Orbit: 1502 x 1681 km, 47.2° (Epoch: 13 July)

Event Time Altitude Azimuth Distance (km) Brightness Sun altitude
Rises 23:13:32 0° 216° (SW) 4,625 - -22.0°
Reaches altitude 10° 23:16:41 10° 211° (SSW) 3,644 - -22.1°
Exits shadow 23:21:43 34° 189° (S) 2,299 7.9 -22.1°
Maximum altitude 23:25:16 48° 141° (SE) 1,906 7.6 -22.2°
Drops below altitude 10° 23:34:02 10° 71° (ENE) 3,716 9.7 -22.2°
Sets 23:37:15 0° 66° (ENE) 4,723 10.4 -22.2°
